Regional Weather Roundup
Issued by NWS

Home | Current Version | Previous Version | Text Only | Print | Product List | Glossary Off
Versions: 1 2 3 4 5 6 7 8 9 10 11 12 13 14 15 16 17 18 19 20 21 22 23 24 25 26 27 28 29 30 31 32 33 34 35 36 37 38 39 40 41 42 43 44 45 46 47 48 49 50

000
ASUS43 KOAX 291210
RWRNE

WEATHER ROUNDUP FOR NEBRASKA
NATIONAL WEATHER SERVICE OMAHA NE
700 AM CDT MON MAY 29 2017

NOTES: SATELLITE DATA IS BEING USED TO AUGMENT CLOUD COVER ABOVE
       12000 FEET.
       "FAIR" INDICATES FEW OR NO CLOUDS BELOW 12,000 FEET WITH NO
       SIGNIFICANT WEATHER AND/OR OBSTRUCTIONS TO VISIBILITY.

  * THESE STATIONS DO NOT REPORT WEATHER SUCH AS RAIN...SNOW OR FOG.

NEZ001>004-019>022-054>056-291300-
NEBRASKA PANHANDLE

CITY           SKY/WX    TMP DP  RH WIND       PRES   REMARKS
SCOTTSBLUFF    CLEAR     45  41  86 NW6       30.19R
6HR MIN TEMP:  44; 6HR MAX TEMP:  51;

ALLIANCE       CLEAR     48  42  80 NW10      30.15R
6HR MIN TEMP:  40; 6HR MAX TEMP:  50;

CHADRON        CLEAR     45  41  86 VRB5      30.17R
6HR MIN TEMP:  45; 6HR MAX TEMP:  53;

GORDON         FAIR      43  40  89 W7        30.14R
6HR MIN TEMP:  41; 6HR MAX TEMP:  51;

KIMBALL        CLEAR     46  39  78 NW8       30.22S
SIDNEY         CLEAR     46  41  82 NW12      30.19S
6HR MIN TEMP:  43; 6HR MAX TEMP:  47;

$$

NEZ057>060-069>072-079>082-291300-
SOUTHWEST NEBRASKA

CITY           SKY/WX    TMP DP  RH WIND       PRES   REMARKS
NORTH PLATTE   CLEAR     45  43  93 NW7       30.11R
6HR MIN TEMP:  43; 6HR MAX TEMP:  52;

IMPERIAL       CLEAR     50  43  77 W9        30.15R
6HR MIN TEMP:  49; 6HR MAX TEMP:  53;

LEXINGTON      CLEAR     52  47  82 NW10      30.09R
MCCOOK         CLEAR     49  47  93 SW6       30.11R
6HR MIN TEMP:  49; 6HR MAX TEMP:  56;

OGALLALA       CLEAR     51  46  86 NW9       30.14R
$$

NEZ005>010-023>029-035>040-094-291300-
NORTH CENTRAL NEBRASKA

CITY           SKY/WX    TMP DP  RH WIND       PRES   REMARKS
VALENTINE      CLEAR     47  40  76 NW8       30.09R
6HR MIN TEMP:  45; 6HR MAX TEMP:  54;

AINSWORTH      CLEAR     47  44  87 NW6       30.08R
BROKEN BOW     CLEAR     53  46  77 NW13      30.06R
6HR MIN TEMP:  51; 6HR MAX TEMP:  58;

O`NEILL        CLEAR     51  45  80 NW10      30.03R
ORD            CLEAR     50  45  83 W6        30.03R
6HR MIN TEMP:  48; 6HR MAX TEMP:  55;

THEDFORD       CLEAR     48  45  90 W7        30.10R
$$

NEZ041-046>049-061>064-073>077-083>087-291300-
SOUTH CENTRAL NEBRASKA

CITY           SKY/WX    TMP DP  RH WIND       PRES   REMARKS
GRAND ISLAND   CLEAR     52  47  83 W8        30.05R
6HR MIN TEMP:  51; 6HR MAX TEMP:  59;

AURORA         CLEAR     53  47  81 NW8       30.03R
HASTINGS       CLEAR     54  46  74 W9        30.06R
6HR MIN TEMP:  53; 6HR MAX TEMP:  59;

HEBRON         CLEAR     56  49  76 W3        30.04R
HOLDREGE       PTCLDY    50  45  81 W5        30.08R
KEARNEY *      PTCLDY    54  45  71 W8        30.07R
YORK           PTCLDY    54  48  82 W8        30.03R
$$

NEZ011>018-030>034-042>045-291300-
NORTHEAST NEBRASKA

CITY           SKY/WX    TMP DP  RH WIND       PRES   REMARKS
NORFOLK        CLEAR     52  46  80 W7        29.99R
6HR MIN TEMP:  47; 6HR MAX TEMP:  62;

ALBION         CLEAR     51  46  84 NW8       30.01R
BLAIR          SUNNY     56  46  69 W6        29.97S
FREMONT        PTCLDY    54  47  77 W3        29.99R
TEKAMAH        SUNNY     57  46  66 W7        29.97R
6HR MIN TEMP:  52; 6HR MAX TEMP:  66;

WAYNE          CLEAR     51  49  92 SW3       29.98S
$$

NEZ050>053-065>068-078-088>093-291300-
SOUTHEAST NEBRASKA

CITY           SKY/WX    TMP DP  RH WIND       PRES   REMARKS
LINCOLN        MOCLDY    58  47  66 NW5       30.01R
6HR MIN TEMP:  54; 6HR MAX TEMP:  61;

OMAHA EPPLEY   MOSUNNY   57  46  66 CALM      29.97R
6HR MIN TEMP:  53; 6HR MAX TEMP:  63;

BEATRICE       CLEAR     55  49  81 W8        30.01R
FALLS CITY     MOSUNNY   56  50  80 NW8       29.95R
6HR MIN TEMP:  54; 6HR MAX TEMP:  59;

NEBRASKA CITY  SUNNY     58  44  57 NW9       29.97R
PLATTSMOUTH    MOSUNNY   58  47  66 NW9       29.97R
$$

NEZ044-045-051>053-067-291300-
OMAHA AREA

CITY           SKY/WX    TMP DP  RH WIND       PRES   REMARKS
OMAHA EPPLEY   MOSUNNY   57  46  66 CALM      29.97R
6HR MIN TEMP:  53; 6HR MAX TEMP:  63;

BLAIR          SUNNY     56  46  69 W6        29.97S
FREMONT        PTCLDY    54  47  77 W3        29.99R
MILLARD        PTSUNNY   56  49  79 CALM      29.98R
OFFUTT AFB     MOSUNNY   54  47  78 NW7       29.97R
PLATTSMOUTH    MOSUNNY   58  47  66 NW9       29.97R
WAHOO          FAIR      57  46  66 W6        29.99R
$$




USA.gov is the U.S. government's official web portal to all federal, state and local government web resources and services.